Hutchinson, KS

4:56 AM CDT on September 23, 2019 (GMT -0500)
Hutchinson Municipal

Weather History for KHUT - July, 2019

Change the Weather History Date:

Tuesday, July 30, 2019

  Actual Average Record
Temperature  
Mean Temperature 76 °F -  
Max Temperature 93 °F 90 °F 105 °F (2011)
Min Temperature 60 °F 66 °F 57 °F (2004)
Cooling Degree Days 12    
Growing Degree Days 26 (Base 50)    
Moisture  
Dew Point 59 °F    
Average Humidity 54    
Maximum Humidity 86    
Minimum Humidity 32    
Precipitation  
Precipitation 0.00 in - - ()
Sea Level Pressure  
Sea Level Pressure 29.99 in    
Wind  
Wind Speed 7 mph (ESE)    
Max Wind Speed 15 mph    
Max Gust Speed 23 mph    
Visibility 10 miles    
Events      
Averages and records for this station are not official NWS values.
T = Trace of Precipitation, MM = Missing Value Source: NWS Daily Summary

Daily Weather History Graph

Daily Weather History Graph

Search for Another Location

Airport or City:

Astronomy

Jul. 30, 2019 Rise Set
Actual Time 6:32 AM CDT 8:42 PM CDT
Civil Twilight 6:03 AM CDT 9:12 PM CDT
Nautical Twilight 5:26 AM CDT 9:48 PM CDT
Astronomical Twilight 4:47 AM CDT 10:27 PM CDT
Moon 4:43 AM CDT (7/30) 7:47 PM CDT (7/30)
Length of Visible Light 15h 09m
Length of Day
14h 10m
Waning Crescent, 3% of the Moon is Illuminated
Jul 30
Waning Crescent
Jul 31
New
Aug 7
First Quarter
Aug 15
Full
Aug 23
Last Quarter

Hourly Weather History & Observations

Time (CDT) Temp. Heat Index Dew Point Humidity Pressure Visibility Wind Dir Wind Speed Gust Speed Precip Events Conditions
12:52 AM 64.0 °F - 55.9 °F 75% 30.02 in 10.0 mi Calm Calm - N/A   Clear
1:52 AM 66.0 °F - 55.9 °F 70% 30.01 in 10.0 mi NE 3.5 mph - N/A   Clear
2:52 AM 66.0 °F - 55.0 °F 68% 30.01 in 10.0 mi ENE 6.9 mph - N/A   Clear
3:52 AM 66.9 °F - 55.0 °F 66% 30.00 in 10.0 mi East 8.1 mph - N/A   Clear
4:52 AM 64.0 °F - 55.0 °F 73% 30.00 in 10.0 mi ESE 3.5 mph - N/A   Clear
5:52 AM 64.0 °F - 55.0 °F 73% 30.01 in 10.0 mi Calm Calm - N/A   Clear
6:52 AM 60.1 °F - 55.9 °F 86% 30.02 in 10.0 mi ENE 3.5 mph - N/A   Clear
7:52 AM 69.1 °F - 57.9 °F 68% 30.03 in 10.0 mi ESE 5.8 mph - N/A   Clear
8:52 AM 75.0 °F - 60.1 °F 60% 30.05 in 10.0 mi SE 9.2 mph - N/A   Clear
9:52 AM 79.0 °F - 61.0 °F 54% 30.05 in 10.0 mi SSE 11.5 mph - N/A   Clear
10:52 AM 84.0 °F 83.8 °F 59.0 °F 43% 30.06 in 10.0 mi SE 11.5 mph - N/A   Clear
11:52 AM 87.1 °F 87.0 °F 61.0 °F 41% 30.05 in 10.0 mi SSE 10.4 mph - N/A   Clear
12:52 PM 88.0 °F 87.1 °F 59.0 °F 37% 30.04 in 10.0 mi SSE 9.2 mph - N/A   Clear
1:52 PM 90.0 °F 88.6 °F 57.0 °F 33% 30.01 in 10.0 mi SE 11.5 mph 17.3 mph N/A   Clear
2:52 PM 91.9 °F 91.5 °F 60.1 °F 34% 29.99 in 10.0 mi SE 13.8 mph - N/A   Clear
3:52 PM 91.9 °F 91.2 °F 59.0 °F 33% 29.96 in 10.0 mi ESE 12.7 mph - N/A   Clear
5:52 PM 93.0 °F 92.3 °F 59.0 °F 32% 29.93 in 10.0 mi SE 15.0 mph 23.0 mph N/A   Clear
6:52 PM 91.0 °F 90.0 °F 57.9 °F 33% 29.92 in 10.0 mi SE 15.0 mph 23.0 mph N/A   Clear
7:52 PM 88.0 °F 86.9 °F 57.9 °F 36% 29.92 in 10.0 mi SE 11.5 mph - N/A   Clear
8:52 PM 84.0 °F 83.8 °F 59.0 °F 43% 29.92 in 10.0 mi SE 12.7 mph - N/A   Clear
9:52 PM 80.1 °F 81.2 °F 62.1 °F 54% 29.93 in 10.0 mi ESE 9.2 mph - N/A   Clear
10:52 PM 77.0 °F - 64.0 °F 64% 29.96 in 10.0 mi SE 9.2 mph - N/A   Clear
11:52 PM 77.0 °F - 64.0 °F 64% 29.95 in 10.0 mi SE 10.4 mph - N/A   Clear